Wind_Speed
26 24 21 20 18 16 12 9 7 5 4 4 5 7 8 10 11 13 14 16 18 20
25 24 22 20 17 13 10 7 5 3 3 4 7 8 10 11 12 13 15 16 17 18
23 22 20 18 14 12 9 7 4 2 3 5 7 9 11 13 15 16 18 19 20 20
22 19 17 15 13 11 8 6 3 2 4 7 9 11 14 16 18 19 20 20 21 20
20 18 16 14 12 9 7 4 1 4 7 9 11 14 16 18 20 22 22 22 22 22
19 18 15 12 9 6 3 1 2 5 8 10 13 15 18 19 21 21 22 22 23 24
18 15 13 11 8 5 2 2 4 7 9 12 15 17 18 19 20 21 21 22 23 25
16 13 11 8 6 4 2 4 6 8 10 13 16 17 18 19 20 22 24 24 24 26
14 11 9 6 3 1 2 5 7 10 13 14 15 16 19 21 23 24 26 28 28 29
13 10 7 4 1 2 4 7 9 11 13 14 15 17 19 22 24 25 27 29 30 30
11 8 5 2 1 4 6 9 11 13 14 16 17 19 21 23 25 27 28 30 32 32
8 5 2 1 4 6 9 11 12 14 16 18 19 21 22 24 27 30 32 33 34 34
5 2 1 3 6 9 11 12 14 16 19 21 22 23 23 25 29 33 34 35 37 38
3 1 3 5 7 10 13 15 18 21 22 22 23 24 25 27 30 32 35 38 39 39
Wind_Direction
203 204 200 201 208 221 227 235 250 269 285 295 318 335 342 336 331 324 322 319 318 317
203 201 208 203 201 203 212 217 223 232 285 322 334 335 332 327 324 322 320 319 315 313
192 188 186 188 185 190 189 189 187 227 297 319 325 326 329 333 331 330 330 329 325 322
174 174 176 178 179 171 171 172 194 272 311 321 327 333 332 331 330 326 323 322 321 321
167 167 167 164 165 165 169 178 256 318 327 329 330 328 325 327 325 325 326 326 324 325
160 161 161 159 158 161 173 222 305 319 321 324 326 325 329 327 329 330 330 329 327 327
157 158 158 159 161 166 187 295 311 318 324 327 328 325 326 327 329 329 329 328 326 325
157 158 159 159 161 172 235 305 322 329 327 326 325 325 324 323 326 326 325 324 324 324
158 157 160 166 179 241 315 324 325 324 327 329 328 326 326 325 325 325 326 326 326 325
161 164 167 169 191 308 322 325 327 329 329 331 330 328 325 323 322 322 324 323 324 323
163 162 163 168 302 325 328 330 333 332 330 329 328 325 323 321 320 320 321 322 322 322
160 164 177 289 321 326 328 330 331 330 326 324 324 323 322 321 320 320 321 321 321 324
162 178 268 318 326 330 330 329 324 323 324 324 323 322 322 324 323 321 320 320 322 324
173 249 313 324 323 322 322 322 322 320 321 324 325 324 322 321 319 319 318 317 318 319
Height
1541 1545 1547 1550 1551 1554 1555 1557 1559 1559 1559 1559 1559 1558 1557 1556 1555 1554 1553 1552 1551 1549
1538 1541 1543 1546 1549 1551 1552 1554 1555 1556 1557 1557 1557 1556 1555 1555 1554 1552 1551 1549 1547 1545
1535 1538 1541 1543 1546 1548 1550 1552 1553 1554 1554 1554 1554 1555 1553 1551 1549 1548 1546 1545 1543 1541
1532 1536 1539 1542 1544 1546 1548 1550 1551 1552 1552 1551 1550 1549 1548 1547 1545 1543 1542 1540 1538 1537
1531 1535 1538 1541 1543 1545 1546 1547 1548 1549 1549 1547 1546 1545 1544 1544 1542 1540 1538 1536 1534 1532
1531 1534 1537 1540 1542 1544 1545 1546 1545 1545 1546 1545 1543 1542 1541 1540 1539 1537 1535 1533 1530 1528
1531 1534 1536 1537 1539 1541 1543 1544 1544 1543 1543 1542 1540 1539 1537 1537 1535 1534 1531 1529 1526 1524
1530 1533 1535 1537 1537 1538 1540 1541 1542 1541 1540 1539 1536 1535 1534 1533 1531 1528 1526 1524 1521 1518
1529 1531 1534 1536 1537 1537 1537 1538 1539 1538 1537 1536 1534 1532 1530 1528 1527 1525 1521 1518 1516 1513
1527 1529 1532 1533 1534 1535 1535 1535 1535 1534 1535 1533 1531 1529 1527 1524 1522 1519 1516 1513 1509 1506
1525 1528 1530 1531 1532 1532 1532 1532 1531 1531 1531 1530 1528 1526 1523 1521 1518 1515 1511 1508 1504 1499
1524 1527 1528 1529 1529 1530 1529 1529 1529 1528 1526 1524 1523 1521 1519 1515 1512 1508 1504 1501 1498 1495
1523 1525 1526 1526 1527 1527 1527 1526 1525 1524 1522 1521 1518 1517 1514 1511 1506 1501 1496 1492 1489 1487
1521 1523 1524 1524 1524 1524 1524 1522 1520 1519 1517 1515 1513 1510 1508 1504 1500 1496 1490 1486 1481 1479